TimePDT,TemperatureF,Dew PointF,Humidity,Sea Level PressureIn,VisibilityMPH,Wind Direction,Wind SpeedMPH,Gust SpeedMPH,PrecipitationIn,Events,Conditions,WindDirDegrees,DateUTC
12:54 AM,43.0,39.9,89,30.03,10.0,SSW,4.6,-,N/A,,Clear,200,2012-10-10 07:54:00
1:54 AM,43.0,39.9,89,30.04,10.0,WSW,3.5,-,N/A,,Clear,240,2012-10-10 08:54:00
2:54 AM,39.9,37.0,89,30.03,10.0,Calm,Calm,-,N/A,,Clear,0,2012-10-10 09:54:00
3:54 AM,39.9,37.0,89,30.02,10.0,SSW,3.5,-,N/A,,Clear,210,2012-10-10 10:54:00
4:54 AM,39.9,37.0,89,30.03,10.0,Calm,Calm,-,N/A,,Clear,0,2012-10-10 11:54:00
5:54 AM,39.9,37.0,89,30.03,10.0,Calm,Calm,-,N/A,,Clear,0,2012-10-10 12:54:00
6:54 AM,39.9,37.0,89,30.03,10.0,Calm,Calm,-,N/A,,Partly Cloudy,0,2012-10-10 13:54:00
7:54 AM,37.4,33.8,87,30.04,10.0,Calm,Calm,-,N/A,,Partly Cloudy,0,2012-10-10 14:54:00
8:54 AM,46.4,42.8,87,30.05,10.0,Calm,Calm,-,N/A,,Partly Cloudy,0,2012-10-10 15:54:00
9:54 AM,51.1,44.1,77,30.05,10.0,Calm,Calm,-,N/A,,Partly Cloudy,0,2012-10-10 16:54:00
10:54 AM,57.9,44.1,60,30.03,10.0,Calm,Calm,-,N/A,,Clear,0,2012-10-10 17:54:00
11:54 AM,62.1,45.0,53,30.01,10.0,Calm,Calm,-,N/A,,Clear,0,2012-10-10 18:54:00
12:54 PM,66.0,45.0,47,29.99,10.0,Variable,3.5,-,N/A,,Clear,0,2012-10-10 19:54:00
1:54 PM,69.1,45.0,42,29.96,10.0,NE,4.6,-,N/A,,Clear,50,2012-10-10 20:54:00
2:54 PM,72.0,46.0,40,29.93,10.0,Variable,5.8,-,N/A,,Clear,0,2012-10-10 21:54:00
3:54 PM,73.0,46.0,38,29.92,10.0,NNE,9.2,-,N/A,,Clear,30,2012-10-10 22:54:00
4:54 PM,73.0,46.0,38,29.90,10.0,NE,6.9,-,N/A,,Clear,40,2012-10-10 23:54:00
5:54 PM,70.0,46.0,42,29.90,10.0,NNE,8.1,-,N/A,,Clear,30,2012-10-11 00:54:00
6:54 PM,63.0,43.0,48,29.91,10.0,North,6.9,-,N/A,,Clear,350,2012-10-11 01:54:00
7:54 PM,59.0,44.1,58,29.92,10.0,North,6.9,-,N/A,,Clear,350,2012-10-11 02:54:00
8:54 PM,54.0,43.0,66,29.92,10.0,Calm,Calm,-,N/A,,Clear,0,2012-10-11 03:54:00
9:54 PM,50.0,43.0,77,29.94,10.0,East,3.5,-,N/A,,Clear,90,2012-10-11 04:54:00
10:54 PM,51.1,44.1,77,29.94,10.0,Calm,Calm,-,N/A,,Clear,0,2012-10-11 05:54:00
11:54 PM,45.0,39.9,82,29.95,10.0,Calm,Calm,-,N/A,,Clear,0,2012-10-11 06:54:00